Regional Weather Roundup
Issued by NWS

Home | Current Version | Previous Version | Graphics & Text | Print | Product List | Glossary On
Versions: 1 2 3 4 5 6 7 8 9 10 11 12 13 14 15 16 17 18 19 20 21 22 23 24 25 26 27 28 29 30 31 32 33 34 35 36 37 38 39 40 41 42 43 44 45 46 47 48 49 50
000
ASUS45 KABQ 011401
RWRNM
WEATHER ROUNDUP FOR NEW MEXICO
NATIONAL WEATHER SERVICE ALBUQUERQUE NM
800 AM MDT MON SEP 01 2014

NOTE: "FAIR" MEANS FEW OR NO CLOUDS BELOW 12,000 FEET AGL WITH NO
       SIGNIFICANT WEATHER OR OBSTRUCTIONS TO VISION.

      THIS PRODUCT IS RELEASED AS TWO VERSIONS.  ONE VERSION NEAR
      THE TOP OF THE HOUR CONTAINING PRELIMINARY DATA FROM ALBUQUERQUE
      AND OTHER STATIONS.  A FINAL VERSION WITH ADDITIONAL DATA IS
      ISSUED ABOUT 10 MINUTES AFTER THE HOUR.

NMZ501-503-504-510>518-011500-
NORTHWEST PLATEAU/NORTHCENTRAL MOUNTAINS

CITY           SKY/WX    TMP DP  RH WIND       PRES   REMARKS
FARMINGTON     SUNNY     60  37  42 N3        30.10R
LOS ALAMOS     SUNNY     67  35  31 N5        30.23R
SANTA FE       SUNNY     65  40  39 E3        30.17R
ANGEL FIRE     FAIR      52  40  62 SE5       30.31R

$$
NMZ402-403-502-505>509-011500-
WESTCENTRAL MOUNTAINS/SOUTHWEST MOUNTAINS

CITY           SKY/WX    TMP DP  RH WIND       PRES   REMARKS
GALLUP         SUNNY     63  37  38 S10       30.22R
SILVER CITY    SUNNY     66  36  32 NW9       30.17R

$$
NMZ407-409-411-412-011500-
SOUTHERN DESERTS

CITY           SKY/WX    TMP DP  RH WIND       PRES   REMARKS
LORDSBURG      FAIR      64  37  36 MISG      30.08R
DEMING         SUNNY     70  41  34 CALM      30.07R
LAS CRUCES     SUNNY     73  40  30 CALM      30.08R
HOLLOMAN AFB   SUNNY     70  42  35 SE2       30.02R
ALAMOGORDO     SUNNY     72  43  35 CALM      30.04R
T OR C         SUNNY     73  43  33 NW6       30.09R

$$
NMZ519>523-011500-
CENTRAL VALLEYS/CENTRAL HIGHLANDS

CITY           SKY/WX    TMP DP  RH WIND       PRES   REMARKS
ALBUQUERQUE    MOSUNNY   67  41  38 SE8       30.13R
DOUBLE EAGLE   MOSUNNY   64  41  42 CALM      30.16R
CLINES CORNERS SUNNY     66  39  37 W10       30.21R
BELEN          FAIR      69  42  37 S5        30.12R
SOCORRO        FAIR      67  46  45 CALM      30.10R

$$
NMZ524>526-539-540-011500-
SOUTHCENTRAL MOUNTAINS

CITY           SKY/WX    TMP DP  RH WIND       PRES   REMARKS
RUIDOSO        NOT AVBL

$$
NMZ527>531-011500-
NORTHEAST HIGHLANDS/NORTHEAST PLAINS

CITY           SKY/WX    TMP DP  RH WIND       PRES   REMARKS
LAS VEGAS      SUNNY     67  38  34 NW8       30.18R
RATON          SUNNY     62  45  53 NE13      30.14R
CLAYTON        SUNNY     65  50  58 N15       30.06S

$$
NMZ532>537-011500-
EASTCENTRAL PLAINS

CITY           SKY/WX    TMP DP  RH WIND       PRES   REMARKS
TUCUMCARI      SUNNY     70  54  56 N9        29.99R
CANNON AFB     SUNNY     70  57  63 W9        29.99R
CLOVIS AIRPORT   N/A     72  57  60 NW9       30.01R

$$
NMZ028-029-538-011500-
SOUTHEAST PLAINS

CITY           SKY/WX    TMP DP  RH WIND       PRES   REMARKS
ROSWELL        SUNNY     71  45  39 CALM      29.98R
CARLSBAD       SUNNY     77  60  55 CALM      29.95R
HOBBS          SUNNY     75  63  64 S8        29.98R


$$



USA.gov is the U.S. government's official web portal to all federal, state and local government web resources and services.